Regional Weather Roundup
Issued by NWS Grand Forks, ND

Home | Current Version | Previous Version | Text Only | Print | Product List | Glossary Off
Versions: 1 2 3 4 5 6 7 8 9 10 11 12 13 14 15 16 17 18 19 20 21 22 23 24 25 26 27 28 29 30 31 32 33 34 35 36 37 38 39 40 41 42 43 44 45 46 47 48 49 50

000
ASUS43 KFGF 281710
RWRFGF
PRAIRIE TO PINES  WEATHER ROUNDUP
NATIONAL WEATHER SERVICE EASTERN NORTH DAKOTA/GRAND FORKS ND
1100 AM CST SUN DEC 28 2014

 **SATELLITE DATA USED TO AUGMENT SKY COVER AT AUTOMATED STATIONS**
 *****  WEATHER ACROSS EASTERN NORTH DAKOTA  *****

CITY           SKY/WX    TMP DP  RH WIND       PRES   REMARKS
GRAND FORKS    SUNNY     -5 -11  75 N7        30.35R WCI -19
GRAND FRKS AFB SUNNY     -4 -10  77 N7        30.34R WCI -18
GRAND FRKS NWS   N/A     -4 N/A N/A N10         N/A  WCI -21
DEVILS LAKE    CLOUDY    -2  -9  71 NE5       30.27R WCI -12
FARGO          SUNNY      1  -6  72 N14       30.30R WCI -17
WAHPETON ARPT  CLOUDY     5   0  78 N12       30.26R WCI -11
$$

 ***** WEATHER ACROSS CENTRAL AND WESTERN NORTH DAKOTA  *****

CITY           SKY/WX    TMP DP  RH WIND       PRES   REMARKS
BISMARCK       CLOUDY    10   6  84 E14       30.19R WCI  -6
MINOT          CLOUDY    -3  -7  82 N7        30.24R WCI -16
JAMESTOWN      CLOUDY     3  -3  76 NE9       30.23R WCI -12
MINOT AFB      CLOUDY    -4  -6  92 NE3       30.25R
GARRISON         N/A      6   2  83 E12       30.18R WCI  -9
WILLISTON      CLOUDY    11   4  73 E10       30.16R WCI  -3
DICKINSON      CLOUDY    18  13  80 E13       30.03R HAZE    WCI   5
HETTINGER      CLOUDY    17  14  88 E10       30.02R WCI   5
$$

 *****  OTHER AIRPORT OBSERVATIONS IN OUR AREA  *****

CITY           SKY/WX    TMP DP  RH WIND       PRES   REMARKS
WALHALLA         N/A     -4 -11  71 NW9       30.35R WCI -20
GRAFTON AIRPOR NOT AVBL
VALLEY CITY AR FAIR       0  -4  85 NE14      30.25R WCI -19
CANDO          FAIR      -2  -8  78 CALM      30.29R
CAVALIER APRT  FAIR      -6 -13  71 N8        30.35R WCI -21
GWINNER        MOSUNNY    5  -2  72 N15       30.24S WCI -13
ROLLA          FAIR      -6  -9  84 CALM      30.24R
 ***** THE ABOVE OBSERVATIONS ARE NON NWS ARE NOT QUALITY
       CONTROLLED AND MAY MIS-REPORT RAIN FOR SNOW...
$$

  *****  WEATHER ACROSS NORTHERN MINNESOTA  *****

CITY           SKY/WX    TMP DP  RH WIND       PRES   REMARKS
FLAG ISLAND    SUNNY     -9 -17  70 NW8       30.25S WCI -26
WARROAD        SUNNY     -8 -15  71 W5        30.27R WCI -19
ROSEAU         SUNNY     -6 -11  77 NW7       30.28S WCI -20
HALLOCK        SUNNY     -8 -15  71 N9        30.33R WCI -25
THF RVR FALLS  SUNNY     -6  -9  84 NW6       30.28R WCI -18
BAUDETTE       SUNNY     -7 -14  71 NW9       30.24R WCI -24
WASKISH        SUNNY      0  -8  71 CALM      30.24R
CROOKSTON      SUNNY     -6 -11  77 N8        30.33S WCI -21
STEPHEN NDAWN    N/A     -9 -17  70 N7          N/A  WCI -24
GREENBUSH NDAW   N/A     -8 -13  77 N8          N/A  WCI -23
$$
  *****  WEATHER ACROSS CENTRAL AND WEST MINNESOTA  *****

CITY           SKY/WX    TMP DP  RH WIND       PRES   REMARKS
FOSSTON        SUNNY      0  -8  71 N8        30.25R WCI -15
BEMIDJI        MOSUNNY   -1  -4  85 N6        30.21R WCI -13
PARK RAPIDS    SUNNY      4  -5  66 N9        30.18R WCI -10
ELBOW LAKE     CLOUDY    14   9  80 N12       30.19R WCI   0
WADENA         SUNNY      9   0  66 N7        30.19R WCI  -3
DETROIT LAKES  SUNNY      5   0  78 NE6       30.22R WCI  -6
MOORHEAD       SUNNY      1  -2  85 N12       30.29R WCI -15
FERGUS FALLS   PTSUNNY    7  -2  66 N7        30.26R WCI  -5
MORRIS MN      CLOUDY    19  16  86 NW13      30.19R WCI   7
STAPLES        SUNNY     10   3  72 N7        30.18R WCI   0
$$
  *****  WEATHER ELSEWHERE ACROSS MINNESOTA  *****

CITY           SKY/WX    TMP DP  RH WIND       PRES   REMARKS
DULUTH         SUNNY      8  -4  58 N13       30.13R WCI  -8
INTRNTL FALLS  SUNNY     -1  -9  68 W6        30.21R WCI -13
ELY            SUNNY      0  -8  71 NW7       30.14S WCI -13
CLOQUET        SUNNY      9  -4  56 NW14      30.16R WCI  -8
WHEATON        PTSUNNY    7   3  85 NW14      30.25R WCI -10
BRAINERD       SUNNY     12   3  67 N10       30.18R WCI  -1
HIBBING        SUNNY      2  -7  66 NW12      30.17S WCI -15
ALEXANDRIA     CLOUDY    18  10  71 N9        30.17R WCI   7
SAINT CLOUD    CLOUDY    24  13  62 N10       30.17R WCI  14
MINNEAPOLIS    CLOUDY    15  10  80 CALM      30.18R
$$

  *****  WEATHER ACROSS SOUTH DAKOTA  *****

CITY           SKY/WX    TMP DP  RH WIND       PRES   REMARKS
SIOUX FALLS    MOSUNNY    8   6  92 CALM      30.15R
BROOKINGS      NOT AVBL
WATERTOWN      CLOUDY    16  13  88 NE13      30.14R WCI   2
HURON          SUNNY      9   5  84 N3        30.17R
SISSETON         N/A      9   5  84 N13       30.22R WCI  -7
ABERDEEN       FLURRIES  13   8  81 NE14      30.20R WCI  -2
MITCHELL       SUNNY     14  10  84 NE5       30.16R WCI   6
PIERRE         CLOUDY    11   9  92 E6        30.09R WCI   1
MOBRIDGE       CLOUDY    19  14  81 E12       30.10R WCI   7
RAPID CITY     CLOUDY    19  13  77 CALM      29.96R
$$

  *****  SOME WEATHER IN NEARBY STATES *****

CITY           SKY/WX    TMP DP  RH WIND       PRES   REMARKS
GLASGOW MT     CLOUDY    18  12  77 NE15      30.07R WCI   4
GREAT FALLS MT SNOW      14  12  92 N23       30.00R VSB 1/2 WCI  -5
CHEYENNE WY    MOSUNNY   26   8  46 W10G25    29.87R WCI  16
SCOTTSBLUFF NE CLOUDY    16  10  77 S9        29.95S WCI   4
OMAHA NE       MOSUNNY   26  17  68 CALM      30.17F
DES MOINES IA  SUNNY     26  20  77 SW3       30.18S
DAVENPORT IA   SUNNY     26  16  65 W7        30.21F WCI  18
CHICAGO IL     MOSUNNY   27  15  61 W9        30.18F WCI  18
EAU CLAIRE WI  CLOUDY    14   9  80 CALM      30.15S
LA CROSSE WI   SUNNY     22  13  68 VRB3      30.19R
$$

  *****  SOME NATIONAL WEATHER *****

CITY           SKY/WX    TMP DP  RH WIND       PRES   REMARKS
LA GUARDIA NY  CLOUDY    49  41  74 SW9       29.89F
RALEIGH NC     CLOUDY    58  52  80 SW9       30.05F
ATLANTA GA     CLOUDY    58  56  93 W7        30.09F
NEW ORLEANS LA FOG       62  60  93 NW10      30.09F VSB 1/8
OKLAHOMA CITY  MOSUNNY   32  20  61 S7        30.26S
ALBUQUERQUE NM MOSUNNY   27  10  49 VRB3      30.21S
SALT LAKE CITY FLURRIES  29  18  63 SE14      30.06S WCI  18
LOS ANGELES CA CLOUDY    50  24  36 E3        30.28R
BOISE ID       CLOUDY    29  29 100 CALM      30.11R FOG
SEATTLE WA     MOCLDY    40  37  89 CALM      30.20R
$$

*** WEATHER ACROSS MANITOBA...SASKATCHEWAN AND ONTARIO ***
                ***ONTARIO***

CITY           SKY/WX    TMP DP  RH WIND       PRES   REMARKS
GERALDTON      MOSUNNY   -4 -11  71 W8G20     29.99S WCI -19
THUNDER BAY    NOT AVBL
SIOUX LOOKOUT  MOSUNNY  -13 -20  70 W10       30.14R WCI -32
TORONTO        PTSUNNY   37  21  52 NW14G22   30.01F
BIG TROUT LK   SUNNY    -18 -24  76 W13G18    30.01R WCI -41
PICKLE LAKE    NOT AVBL
DRYDEN         SUNNY    -13 -18  77 W7        30.16R WCI -29
KENORA         NOT AVBL
$$
                *** MANITOBA***

CITY           SKY/WX    TMP DP  RH WIND       PRES   REMARKS
BRANDON        NOT AVBL
DAUPHIN        SUNNY    -18 -24  76 W8        30.36R WCI -37
ISLAND LAKE    MOSUNNY  -22 -29  69 W10       30.19R WCI -44
PILOT MOUND      N/A    -11 -15  84 W1          N/A
THE PAS        PTCLDY   -24 -31  69 NW10      30.40R WCI -46
THOMPSON       NOT AVBL
WINNIPEG       MOSUNNY  -15 -20  76 W9        30.36R WCI -33
$$
                ***SASKATCHEWAN***

CITY           SKY/WX    TMP DP  RH WIND       PRES   REMARKS
ESTEVAN        PTSUNNY   -4  -9  77 NE8       30.24R WCI -19
KINDERSLEY     NOT AVBL
LLOYDMINSTER   NOT AVBL
PRINCE ALBERT  NOT AVBL
REGINA         NOT AVBL
YORKTON        SUNNY    -15 -20  76 W8        30.30R WCI -32
N. BATTLEFORD  CLEAR    -17 -22  76 N5        30.41R WCI -29
LA RONGE       NOT AVBL
SASKATOON      NOT AVBL
SWIFT CURRENT  CLOUDY     1  -2  85 E9        30.18R WCI -14
$$
NOTE: THESE ARE AUTOMATED STATIONS WITH LIMITED QUALITY CONTROL
      "FAIR" INDICATES FEW OR NO CLOUDS BELOW 12,000 FEET WITH NO
      SIGNIFICANT WEATHER AND/OR OBSTRUCTIONS TO VISIBILITY.
      SKY/WX - SKY CONDITION AND SIGNIFICANT WEATHER.
      TMP - AIR TEMPERATURE.    DP   - DEWPOINT TEMPERATURE.
      RH  - RELATIVE HUMIDITY.  PRES - PRESSURE.
      HX  - HEAT INDEX.         WCI  - WIND CHILL INDEX.
$



USA.gov is the U.S. government's official web portal to all federal, state and local government web resources and services.